Evanston, WY

4:38 PM MST on February 09, 2016 (GMT -0700)
Evanston-Uinta County Burns

Weather History for KEVW - September, 2013

Change the Weather History Date:

Sunday, September 1, 2013

  Actual Average Record
Temperature  
Mean Temperature 67 °F 60 °F  
Max Temperature 82 °F 74 °F 84 °F (2004)
Min Temperature 52 °F 47 °F 32 °F (2008)
Degree Days  
Heating Degree Days 0 5  
Month to date heating degree days 0 5  
Since 1 July heating degree days 14 108  
Cooling Degree Days 2 0  
Month to date cooling degree days 2 0  
Year to date cooling degree days 324 157  
Growing Degree Days 18 (Base 50)    
Moisture  
Dew Point 40 °F    
Average Humidity 36    
Maximum Humidity 57    
Minimum Humidity 15    
Precipitation  
Precipitation 0.00 in 0.05 in 0.49 in (2000)
Month to date precipitation 0.00 0.05  
Year to date precipitation 2.58 8.08  
Sea Level Pressure  
Sea Level Pressure 29.94 in    
Wind  
Wind Speed 7 mph (ESE)    
Max Wind Speed 9 mph    
Max Gust Speed -    
Visibility 10 miles    
Events      
T = Trace of Precipitation, MM = Missing Value Source: NWS Daily Summary

Daily Weather History Graph

Daily Weather History Graph

Search for Another Location

Airport or City:

Trip Planner

Search our weather history database for the weather conditions in past years. The results will help you decide how hot, cold, wet, or windy it might be!

Date:

Astronomy

Sep. 01, 2013 Rise Set
Actual Time 6:50 AM MDT 7:56 PM MDT
Civil Twilight 6:22 AM MDT 8:24 PM MDT
Nautical Twilight 5:48 AM MDT 8:58 PM MDT
Astronomical Twilight 5:13 AM MDT 9:33 PM MDT
Moon 3:14 AM MDT (9/1) 5:37 PM MDT (9/1)
Length of Visible Light 14h 02m
Length of Day
13h 05m
Waning Crescent, 13% of the Moon is Illuminated
Sep 1
Waning Crescent
Sep 5
New
Sep 12
First Quarter
Sep 19
Full
Sep 26
Last Quarter

Hourly Weather History & Observations

Time (MDT) Temp. Dew Point Humidity Pressure Visibility Wind Dir Wind Speed Gust Speed Precip Events Conditions
12:53 AM 64.9 °F 46.9 °F 52% 29.94 in 10.0 mi SSE 4.6 mph - N/A   Mostly Cloudy
1:53 AM 64.0 °F 46.9 °F 54% 29.95 in 10.0 mi SE 5.8 mph - N/A   Partly Cloudy
2:53 AM 62.1 °F 46.0 °F 56% 29.94 in 10.0 mi Calm Calm - N/A   Scattered Clouds
3:53 AM 61.0 °F 45.0 °F 56% 29.97 in 10.0 mi ESE 3.5 mph - N/A   Clear
4:53 AM 57.9 °F 46.0 °F 65% 29.98 in 10.0 mi East 5.8 mph - N/A   Partly Cloudy
5:53 AM 59.0 °F 43.0 °F 55% 29.96 in 10.0 mi East 6.9 mph - N/A   Scattered Clouds
6:53 AM 59.0 °F 39.0 °F 48% 29.96 in 10.0 mi East 8.1 mph - N/A   Clear
7:53 AM 59.0 °F 37.0 °F 44% 29.99 in 10.0 mi East 4.6 mph - N/A   Scattered Clouds
8:53 AM 62.1 °F 35.1 °F 37% 30.00 in 10.0 mi East 8.1 mph - N/A   Overcast
9:53 AM 66.0 °F 36.0 °F 33% 30.00 in 10.0 mi ENE 9.2 mph - N/A   Scattered Clouds
10:53 AM 71.1 °F 33.1 °F 25% 29.98 in 10.0 mi East 9.2 mph - N/A   Partly Cloudy
11:53 AM 77.0 °F 33.1 °F 20% 29.96 in 10.0 mi Variable 5.8 mph - N/A   Overcast
12:53 PM 79.0 °F 26.1 °F 14% 29.94 in 10.0 mi East 9.2 mph - N/A   Mostly Cloudy
1:53 PM 79.0 °F 28.0 °F 15% 29.94 in 10.0 mi East 11.5 mph - N/A   Overcast
2:53 PM 80.1 °F 30.9 °F 17% 29.93 in 10.0 mi ESE 6.9 mph - N/A   Mostly Cloudy
3:53 PM 78.1 °F 35.1 °F 21% 29.92 in 10.0 mi East 8.1 mph - N/A   Overcast
4:53 PM 78.1 °F 37.9 °F 24% 29.92 in 10.0 mi East 8.1 mph - N/A   Scattered Clouds
5:53 PM 80.1 °F 37.9 °F 22% 29.88 in 10.0 mi East 6.9 mph - N/A   Mostly Cloudy
6:53 PM 77.0 °F 39.0 °F 25% 29.89 in 10.0 mi East 6.9 mph - N/A   Partly Cloudy
7:53 PM 75.0 °F 41.0 °F 29% 29.90 in 10.0 mi Calm Calm - N/A   Scattered Clouds
8:53 PM 70.0 °F 43.0 °F 38% 29.92 in 10.0 mi SW 9.2 mph - N/A   Mostly Cloudy
9:53 PM 69.1 °F 48.9 °F 49% 29.92 in 10.0 mi WSW 13.8 mph - N/A   Overcast
10:53 PM 66.0 °F 50.0 °F 56% 29.91 in 10.0 mi WSW 9.2 mph - N/A   Partly Cloudy
11:53 PM 64.9 °F 48.9 °F 56% 29.90 in 10.0 mi South 3.5 mph - N/A   Overcast